This demonstration page uses our WeatherBlox Daily Observations layout. Learn more.

Left ArrowRight Arrow

Hourly Observations for March 3, 2022

Temp ( °F °C ) Dew Point ( °F °C ) Humidity (%) Winds ( mph kmh ) Pressure ( in mb ) Visibility ( mi km ) Precip ( " mm )
12:15 am 00:15 undefined 39 4 14 -10.2 35 35 NE 14 22 30.19 1022 10 16 0.00 0.00
12:35 am 00:35 undefined 38 3.5 13 -10.6 35 35 NE 15 24 30.20 1023 10 16 0.00 0.00
12:55 am 00:55 undefined 37 2.6 11 -11.4 35 35 NE 14 22 30.20 1023 10 16 0.00 0.00
1:15 am 01:15 undefined 36 2 10 -12 35 35 NE 16 26 30.22 1023 10 16 0.00 0.00
1:35 am 01:35 undefined 34 1.3 10 -12.5 35 35 NE 15 24 30.23 1024 10 16 0.00 0.00
1:55 am 01:55 undefined 33 0.6 9 -13 36 36 NE 13 20 30.24 1024 7 11 0.00 0.00
2:15 am 02:15 undefined 32 0 8 -13.6 35 35 NE 12 19 30.25 1024 7 11 0.00 0.00
2:35 am 02:35 undefined 31 -0.3 7 -14 35 35 NE 14 22 30.26 1025 7 11 0.00 0.00
2:55 am 02:55 undefined 31 -0.3 7 -14 35 35 NE 16 26 30.26 1025 7 11 0.00 0.00
3:15 am 03:15 Hazy 32 -0.2 7 -14 35 35 NE 15 24 30.26 1025 5 8 0.00 0.00
3:35 am 03:35 Hazy 32 -0.1 7 -14 35 35 NE 18 30 30.26 1025 5 8 0.00 0.00
3:55 am 03:55 Hazy 32 0 7 -13.8 35 35 NE 17 28 30.26 1025 5 8 0.00 0.00
4:15 am 04:15 Hazy 32 -0.2 7 -14 35 35 NE 18 30 30.26 1025 5 8 0.00 0.00
4:35 am 04:35 Hazy 32 -0.2 7 -14 35 35 NE 15 24 30.26 1025 5 8 0.00 0.00
4:55 am 04:55 Hazy 31 -0.5 7 -14.1 35 35 NE 20 31 30.26 1025 3 5 0.00 0.00
5:15 am 05:15 Hazy 31 -0.4 7 -14 35 35 NE 14 22 30.26 1025 4 6 0.00 0.00
5:35 am 05:35 Hazy 31 -0.6 6 -14.4 35 35 NE 18 30 30.28 1025 4 6 0.00 0.00
5:55 am 05:55 Hazy 30 -1 6 -14.6 35 35 NE 18 30 30.30 1026 4 6 0.00 0.00
6:15 am 06:15 Hazy 30 -1.1 6 -14.7 35 35 ENE 14 22 30.31 1026 3 5 0.00 0.00
6:35 am 06:35 Hazy 30 -1.3 5 -15 35 35 ENE 18 30 30.30 1026 1 2 0.00 0.00
6:55 am 06:55 Hazy 29 -1.5 5 -15 35 35 ENE 14 22 30.31 1026 2 3 0.00 0.00
7:15 am 07:15 Hazy 30 -1.2 5 -14.8 35 35 ENE 15 24 30.31 1026 3 4 0.00 0.00
7:35 am 07:35 Hazy 30 -1.3 5 -15 35 35 ENE 14 22 30.31 1026 4 6 0.00 0.00
7:55 am 07:55 undefined 29 -1.5 5 -15 35 35 ENE 15 24 30.32 1027 7 11 0.00 0.00
8:15 am 08:15 Cloudy 29 -1.5 5 -15.1 35 35 E 17 28 30.33 1027 10 16 0.00 0.00
8:35 am 08:35 undefined N/A N/A N/A ENE 16 26 N/A N/A 0.00 0.00
8:55 am 08:55 Cloudy 29 -1.5 5 -15 35 35 ENE 17 28 30.34 1027 10 16 0.00 0.00
9:15 am 09:15 Cloudy 30 -1.1 5 -14.8 35 35 ENE 17 28 30.34 1027 10 16 0.00 0.00
9:35 am 09:35 Cloudy 31 -0.7 6 -14.5 35 35 E 15 24 30.33 1027 10 16 0.00 0.00
9:55 am 09:55 Cloudy 32 0 7 -14 34 34 ENE 15 24 30.34 1027 N/A 0.03 0.76
10:15 am 10:15 undefined N/A N/A N/A undefined N/A N/A N/A 0.00 0.00
10:35 am 10:35 Cloudy with Light Snow N/A N/A N/A undefined N/A N/A N/A 0.00 0.00
10:55 am 10:55 Partly Cloudy with Isolated Snow Showers 35 1.6 26 -3.5 69 69 E 15 24 30.32 1027 N/A 0.00 0.00
11:15 am 11:15 Cloudy 37 2.5 27 -2.6 69 69 ENE 12 19 30.31 1026 10 16 0.00 0.00
11:35 am 11:35 Cloudy with Light Snow 38 3.1 28 -2 70 70 E 14 22 30.30 1026 10 16 0.00 0.00
12:15 pm 12:15 undefined N/A N/A N/A undefined N/A N/A N/A 0.00 0.00
12:35 pm 12:35 undefined N/A N/A N/A undefined N/A N/A N/A 0.00 0.00
12:55 pm 12:55 Sunny N/A N/A N/A undefined N/A N/A 10 16 0.00 0.00
1:15 pm 13:15 undefined N/A N/A N/A undefined N/A N/A N/A 0.00 0.00
1:35 pm 13:35 undefined N/A N/A N/A undefined N/A N/A N/A 0.00 0.00
1:55 pm 13:55 undefined N/A N/A N/A undefined N/A N/A N/A 0.00 0.00

Powered by AerisWeather